Terug naar catalogus

IRIDIUM 176

ActiefCommunicatiePO
NORAD 43923·PAYLOAD·🇺🇸 United States

Gelanceerd Jan 11, 2019 vanaf Vandenberg Space Force Base

Loading…

Volgende Passages (komende 24 uur)

TLE

VersSource: CelesTrak SupGP

Epoch: Sep 14, 2026, 20:41 UTC

1 43923C 19002B   26257.86215278 -.00001021  00000+0 -16212-3 0  2571
2 43923  86.6095 316.0647 0002475  94.6705 190.2206 14.72246147    12

Volg IRIDIUM 176 in realtime met AllMySat

Download on the App Store